User: anonymous   Login
Location: Unspecified
(0.0000°N, 0.0000°E)
Time: 00:12:37
(UTC+01:00)
Language:

ARIANE 5 R/B - Orbit

View from above orbital plane
View from above orbital plane
View from above satellite
View from above satellite

Ground track
Ground track

The orbit data is extracted from the following two-line orbital elements,

1 27387U 02009B   16037.86343188  .00000006  00000-0  16602-4 0  9991
2 27387  98.3991 352.1839 0032449 176.3537 183.7891 14.35883235730316
Epoch (UTC): 06 February 2016 20:43:20
Eccentricity: 0.0032449
inclination: 98.3991°
perigee height: 749 km
apogee height: 795 km
right ascension of ascending node: 352.1839°
argument of perigee: 176.3537°
revolutions per day: 14.35883235
mean anomaly at epoch: 183.7891°
orbit number at epoch: 73031

The dashed part of the orbit path shows where the satellite is in the earth's shadow,  

DLR